Home > Weather > Formosa > Past weeks

Flag for Argentina Past Weather in Formosa, Formosa, Argentina — Yesterday and Last 2 Weeks

Now
77 °F

Passing clouds.


Feels Like: 79 °F
Forecast: 66 / 72 °F
Wind: 14 mph from Northeast

Location: Formosa Aerodrome

Current Time: Jun 25, 2016 at 12:55:58 PM

Latest Report: Jun 25, 2016 at 12:00 PM


Visibility: N/A

Pressure: 29.95 "Hg

Humidity: 65%

Dew Point: 64 °F

Location of FormosaLocation

Past Weather in Formosa — Graph

°F

Formosa Temperature Yesterday

Maximum temperature yesterday: 77 °F (at 3:00 PM)
Minimum temperature yesterday: 54 °F (at 3:00 AM)
Average temperature yesterday: 64 °F

High & Low Weather Summary for the Past Weeks

 TemperatureHumidityPressure
High77 °F (Jun 24, 3:00 PM)100% (Jun 11, 5:00 AM)30.48 "Hg (Jun 11, 5:00 AM)
Low34 °F (Jun 12, 6:00 AM)36% (Jun 14, 3:00 PM)29.89 "Hg (Jun 25, 5:00 AM)
Average56 °F76%30.21 "Hg
* Reported Jun 10 11:00 AM — Jun 25 11:00 AM, Formosa, Weather by CustomWeather, © 2016

Note: Actual official high and low records may vary slightly from our data, if they occured in-between our weather recording intervals... More about our weather records

Advertising

Formosa Weather History for the Previous 24 Hours

Scroll right to see more
 ConditionsComfort  
Time TempWeatherWind HumidityBarometerVisibility
11:00 AM
Sat, Jun 25
73 °FPartly sunny.9 mph78%29.98 "HgN/A
10:00 AM70 °FScattered clouds.5 mph88%29.98 "Hg4 mi
9:00 AM66 °FFog.5 mph100%29.98 "Hg3 mi
8:00 AM68 °FThunderstorms. Partly sunny.8 mph88%29.98 "Hg3 mi
7:00 AM72 °FOvercast.18 mph78%29.89 "HgN/A
6:00 AM70 °FPassing clouds.18 mph78%29.89 "HgN/A
5:00 AM68 °FPassing clouds.9 mph83%29.89 "HgN/A
4:00 AM68 °FPassing clouds.8 mph83%29.92 "HgN/A
3:00 AM68 °FPassing clouds.10 mph83%29.92 "HgN/A
2:00 AM66 °FPassing clouds.12 mph88%29.95 "HgN/A
1:00 AM66 °FClear.9 mph88%29.98 "Hg10 mi
12:00 AM66 °FClear.9 mph88%29.98 "Hg10 mi
11:00 PM
Fri, Jun 24
66 °FClear.9 mph88%29.98 "Hg10 mi
10:00 PM68 °FPassing clouds.6 mph88%30.01 "HgN/A
9:00 PM68 °FPassing clouds.6 mph88%30.01 "HgN/A
8:00 PM68 °FClear.6 mph88%30.01 "Hg10 mi
7:00 PM68 °FClear.9 mph94%29.98 "Hg10 mi
6:00 PM72 °FClear.6 mph83%29.98 "Hg3 mi
5:00 PM75 °FClear.5 mph69%29.95 "Hg3 mi
4:00 PM77 °FClear.9 mph61%29.98 "Hg3 mi
3:00 PM77 °FSunny.7 mph69%29.95 "Hg10 mi
2:00 PM75 °FSunny.12 mph65%29.98 "Hg10 mi
1:00 PM73 °FSunny.7 mph69%30.01 "Hg10 mi
12:00 PM70 °FSunny.7 mph69%30.04 "Hg10 mi
Weather by CustomWeather, © 2016

See weather overviewHow to use our weather pages